Regional Weather Roundup
Issued by NWS Little Rock, AR

Home | Current Version | Previous Version | Text Only | Print | Product List | Glossary On
Versions: 1 2 3 4 5 6 7 8 9 10 11 12 13 14 15 16 17 18 19 20 21 22 23 24 25 26 27 28 29 30 31 32 33 34 35 36 37 38 39 40 41 42 43 44 45 46 47 48 49 50
000
ASUS44 KLZK 230205
RWRLZK

WEATHER ROUNDUP FOR ARKANSAS
NATIONAL WEATHER SERVICE LITTLE ROCK AR
900 PM CDT SAT JUL 22 2017

NOTE: "FAIR" INDICATES FEW OR NO CLOUDS BELOW 12,000 FEET WITH NO
SIGNIFICANT WEATHER AND/OR OBSTRUCTIONS TO VISIBILITY.

ARZ001-003-010-029-230300-
NORTHWEST ARKANSAS

CITY           SKY/WX    TMP DP  RH WIND       PRES   REMARKS
FAYETTEVILLE   CLEAR     81  75  82 S3        29.91R HX  87
FORT SMITH     CLEAR     90  74  59 S7        29.85R HX  99
HARRISON       CLEAR     82  70  66 S5        29.92R HX  86
BENTONVILLE    CLEAR     86  70  58 S3        29.91R HX  90
ROGERS         CLEAR     87  72  60 S8        29.91R HX  93
SILOAM SPGS    CLEAR     84  68  58 S7        29.89R HX  87
HIGHFILL       CLEAR     85  72  65 S6        29.90  HX  91
SPRINGDALE     CLEAR     86  70  58 S7        29.93R HX  90
$$

ARZ004-005-016-230300-
NORTH CENTRAL ARKANSAS

CITY           SKY/WX    TMP DP  RH WIND       PRES   REMARKS
BATESVILLE     CLEAR     88  73  62 S6        29.88R HX  96
FLIPPIN        CLEAR     86  70  58 S3        29.86R HX  90
MTN HOME       CLEAR     83  73  72 S5        29.88R HX  89
$$

ARZ040-041-230300-
WEST CENTRAL ARKANSAS

CITY           SKY/WX    TMP DP  RH WIND       PRES   REMARKS
MENA           CLEAR     84  77  79 CALM      29.93R HX  94
MOUNT IDA      CLEAR     85  71  63 VRB3      29.89R HX  90
$$

ARZ009-017-025-026-028-230300-
NORTHEAST ARKANSAS

CITY           SKY/WX    TMP DP  RH WIND       PRES   REMARKS
JONESBORO      CLEAR     87  77  72 S8        29.88R HX  99
WALNUT RIDGE   CLEAR     84  73  70 S10       29.86R HX  91
BLYTHEVILLE    CLEAR     87  77  72 SW6       29.89R HX  99
$$

ARZ022-023-033-042-044-230300-
CENTRAL ARKANSAS

CITY           SKY/WX    TMP DP  RH WIND       PRES   REMARKS
LITTLE ROCK    PTCLDY    85  78  80 S6        29.89R HX  96
N LITTLE ROCK    N/A     87  75  68 S3        29.88R HX  96
CONWAY           N/A     88  75  66 S5        29.86R HX  97
SEARCY         CLEAR     85  79  82 S5        29.90R HX  98
HOT SPRINGS    CLEAR     88  75  65 S3        29.90R HX  97
RUSSELLVILLE   CLEAR     83  75  77 SE3       29.86R HX  90
CLINTON        FAIR      82  79  89 CALM      29.88R HX  93
$$

ARZ036-230300-
EAST ARKANSAS

CITY           SKY/WX    TMP DP  RH WIND       PRES   REMARKS
WEST MEMPHIS   CLEAR     83  78  85 S6        29.89R HX  93
$$

ARZ050-053-066-070-073-230300-
SOUTHWEST ARKANSAS

CITY           SKY/WX    TMP DP  RH WIND       PRES   REMARKS
ARKADELPHIA    FAIR      85  79  82 S3        29.89R HX  98
CAMDEN         MOCLDY    84  73  70 S10       29.91R HX  91
TEXARKANA      MOCLDY    85  75  72 SE5       29.89R HX  93
EL DORADO      CLOUDY    80  72  76 CALM      29.94S
DE QUEEN       CLEAR     83  80  91 CALM      29.86S HX  95
$$

ARZ056-057-069-230300-
SOUTHEAST ARKANSAS

CITY           SKY/WX    TMP DP  RH WIND       PRES   REMARKS
PINE BLUFF     MOCLDY    85  77  77 S9        29.90S HX  95
STUTTGART      CLEAR     90  66  45 S9        29.90R HX  92
MONTICELLO     CLOUDY    81  72  74 S7        29.93R HX  85

$$





USA.gov is the U.S. government's official web portal to all federal, state and local government web resources and services.